#timestamp,LO_Frequency,Hit,StdDev 
1586217615.3,286046999.6,N
1586217635.1,286046998.2,N
1586217655.8,286047002.7,N
1586217675.7,286047002.3,N
1586217725.6,286046997.0,E
1586217735.5,286047000.7,N
1586217755.3,286047005.9,P
1586217775.2,286047005.9,N
1586217795.9,286047003.0,N
1586217815.7,286047004.8,N
1586217835.6,286047004.1,N
1586217855.4,286047003.8,N
1586217875.2,286047001.7,N
1586217895.1,286047004.0,N
1586217896.0,286047004.0,N
1586217915.8,286047002.0,N
1586217935.7,286047000.2,N
1586217955.6,286047001.9,N
1586217975.4,286047002.6,N
1586217995.2,286047001.5,N
1586218015.1,286047000.5,N
1586218016.0,286047000.5,N
1586218035.8,286047003.9,N
1586218055.7,286047001.9,N
1586218075.5,286047004.1,N
1586218095.3,286047002.0,N
1586218115.2,286047004.4,N
1586218135.0,286047004.9,N
1586218135.9,286047004.9,N
1586218155.8,286047007.6,Y
1586218175.6,286047002.0,P
1586218195.4,286047004.0,P
1586218215.3,286047001.5,N
1586218235.1,286047001.9,N
1586218255.8,286047002.7,N
1586218275.7,286047002.3,N
1586218295.5,286047000.4,N
1586218315.4,286046998.6,N
1586218335.2,286047001.2,N
1586218355.0,286046998.2,N
1586218355.9,286046998.2,N
1586218375.8,286046998.1,N
1586218395.6,286046998.5,N
1586218415.5,286047001.2,N
1586218435.3,286046999.8,N
1586218455.1,286047002.3,N
1586218475.9,286047001.9,N
1586218495.7,286047000.7,N
1586218515.6,286046998.8,N
1586218535.4,286047000.3,N
1586218555.2,286047000.5,N
1586218575.1,286046998.1,N
1586218576.0,286046998.1,N
1586218595.8,286046999.3,N
1586218615.6,286046997.7,N
1586218665.5,286046999.1,E
1586218675.4,286046999.2,N
1586218695.3,286046998.7,P
1586218715.1,286046996.7,P
1586218735.9,286046996.8,N
1586218755.7,286046997.5,N
1586218775.5,286046995.3,Y
1586218795.4,286047000.5,P
1586218815.2,286046999.2,N
1586218835.0,286046997.4,N
1586218836.0,286046997.4,N
1586218855.8,286046997.8,N
1586218875.6,286046995.3,Y
1586218895.5,286046999.1,P
1586218915.3,286046998.9,P
1586218935.1,286046998.3,P
1586218955.9,286046997.3,Y
1586218975.7,286046998.7,P
1586218995.6,286046999.0,P
1586219015.4,286046997.9,P
1586219035.2,286046995.3,Y
1586219055.1,286047011.9,P
1586219056.0,286046999.5,N
1586219075.8,286046999.2,N
1586219095.7,286046996.8,N
1586219115.5,286046998.3,N
1586219135.4,286046998.4,N
1586219155.2,286046999.1,N
1586219175.0,286046996.8,N
1586219175.9,286046996.8,N
1586219195.8,286046994.9,N
1586219215.6,286046996.9,N
1586219235.4,286046997.1,N
1586219255.3,286046999.6,N
1586219275.1,286046996.6,N
1586219295.9,286046997.8,N
1586219315.7,286046994.9,N
1586219335.5,286046996.1,N
1586219355.4,286046995.8,N
1586219375.2,286046993.7,N
1586219395.0,286046996.0,N
1586219396.0,286046996.0,N
1586219415.8,286046994.0,N
1586219435.6,286046994.0,N
1586219455.5,286046994.0,N
1586219475.3,286046994.0,N
1586219495.1,286046993.5,N
1586219515.9,286046996.2,N
1586219535.7,286046993.7,N
1586219555.6,286046997.0,N
1586219575.4,286046996.5,N
1586219595.2,286046997.1,N
1586219615.1,286046996.9,N
1586219616.0,286046996.9,N
1586219635.8,286046999.5,N
1586219655.7,286046999.3,N
1586219675.5,286046998.4,N
1586219695.3,286046996.6,N
1586219715.2,286046999.5,N
1586219735.0,286046998.8,N
1586219735.9,286046998.8,N
1586219755.7,286046998.8,N
1586219775.6,286046998.4,N
1586219795.4,286046998.9,N
1586219815.3,286047000.1,N
1586219835.1,286047002.7,N
1586219855.8,286047000.9,N
1586219875.7,286047000.0,N
1586219895.5,286047001.0,N
1586219915.4,286047002.6,N
1586219935.2,286046999.7,N
1586219955.0,286047001.9,N
1586219955.9,286047001.9,N
1586219975.8,286047004.3,N
1586219995.6,286047002.0,N
1586220015.4,286047000.6,N
1586220035.3,286046998.8,N
1586220055.1,286047000.4,N
1586220075.9,286047000.0,N
1586220095.7,286047002.3,N
1586220115.5,286046998.8,N
1586220135.4,286047002.2,N
1586220155.2,286047005.9,Y
1586220175.1,286047003.8,P
1586220176.0,286047003.8,N
1586220195.8,286047001.4,N
1586220215.6,286047003.9,N
1586220235.5,286047004.0,N
1586220255.3,286047002.7,N
1586220275.1,286047002.2,N
1586220298.1,286047003.8,N
1586220315.2,286047003.7,N
1586220335.1,286047004.3,Y
1586220336.0,286047004.3,P
1586220355.8,286046998.5,N
1586220375.7,286046999.0,N
1586220395.5,286047000.0,N
1586220415.3,286046998.1,N
1586220435.2,286047001.1,N
1586220455.0,286047000.7,N
1586220455.9,286047000.7,N
1586220475.8,286046998.4,N
1586220495.6,286046998.7,N
1586220515.4,286047000.9,N
1586220535.3,286046998.6,N
1586220555.1,286046999.6,N
1586220575.9,286046997.3,N
1586220595.7,286046997.4,N
1586220615.5,286046998.5,N
1586220635.4,286046999.3,N
1586220655.2,286047000.1,N
1586220675.0,286047001.1,N
1586220676.0,286047001.1,N
1586220695.8,286046999.2,N
1586220715.6,286047000.1,N
1586220735.5,286047001.5,N
1586220755.3,286047001.9,N
1586220775.2,286047003.1,N
1586220795.9,286047002.7,N
1586220815.7,286046999.7,N
1586220835.6,286047004.0,N
1586220855.4,286047004.1,N
1586220875.3,286047003.3,N
1586220895.1,286047003.5,N
1586220896.0,286047003.5,N
1586220915.8,286047005.5,N
1586220935.7,286047003.7,N
1586220955.5,286047006.0,N
1586220975.4,286047002.0,N
1586220995.2,286047000.6,N
1586221015.0,286047001.9,N
1586221015.9,286047001.9,N
1586221035.8,286047001.8,N
1586221055.6,286047002.5,N
1586221075.4,286046998.7,N
1586221095.3,286046998.2,N
1586221115.1,286047000.3,N
1586221135.9,286047001.5,N
1586221155.7,286047004.0,N
1586221175.5,286047002.7,N
1586221195.4,286047004.0,N
